| time (UTC) | temp F | wind direction | speed MPH | gust MPH | rain 1hr in | rain 24hr in | rain mn in | humidity % | barometer mb |
| 20260507164552 | 63 | 267 | 5.0 | 10.0 | 0.00 | 0.00 | 0.00 | 50 | 1013.6 |
| 20260507163052 | 62 | 281 | 3.0 | 7.0 | 0.00 | 0.00 | 0.00 | 50 | 1013.8 |
| 20260507161550 | 61 | 265 | 9.0 | 10.0 | 0.00 | 0.00 | 0.00 | 50 | 1014.0 |
| 20260507160052 | 59 | 124 | 1.0 | 11.0 | 0.00 | 0.00 | 0.00 | 55 | 1014.0 |
| 20260507154554 | 59 | 212 | 8.0 | 8.0 | 0.00 | 0.00 | 0.00 | 55 | 1014.4 |
| 20260507153058 | 59 | 222 | 4.0 | 7.0 | 0.00 | 0.00 | 0.00 | 55 | 1014.5 |
| 20260507151551 | 58 | 242 | 12.0 | 12.0 | 0.00 | 0.00 | 0.00 | 64 | 1014.9 |
| 20260507150056 | 56 | 247 | 3.0 | 9.0 | 0.00 | 0.00 | 0.00 | 64 | 1014.9 |
| 20260507144550 | 56 | 248 | 3.0 | 5.0 | 0.00 | 0.00 | 0.00 | 64 | 1015.2 |
| 20260507143053 | 54 | 250 | 3.0 | 5.0 | 0.00 | 0.00 | 0.00 | 70 | 1015.3 |
| 20260507141556 | 52 | 259 | 5.0 | 7.0 | 0.00 | 0.00 | 0.00 | 70 | 1015.4 |
| 20260507140106 | 52 | 223 | 5.0 | 7.0 | 0.00 | 0.00 | 0.00 | 70 | 1015.6 |
| 20260507134558 | 51 | 277 | 8.0 | 8.0 | 0.00 | 0.00 | 0.00 | 77 | 1015.7 |
| 20260507133101 | 50 | 245 | 3.0 | 5.0 | 0.00 | 0.00 | 0.00 | 77 | 1015.7 |
| 20260507131551 | 48 | 232 | 2.0 | 5.0 | 0.00 | 0.00 | 0.00 | 77 | 1015.8 |
| 20260507130047 | 48 | 282 | 2.0 | 5.0 | 0.00 | 0.00 | 0.00 | 82 | 1015.8 |
| 20260507124550 | 47 | 263 | 3.0 | 4.0 | 0.00 | 0.00 | 0.00 | 82 | 1015.8 |
| 20260507123052 | 40 | 272 | 2.0 | 2.0 | 0.00 | 0.00 | 0.00 | 82 | 1015.7 |
| 20260507121549 | 40 | 257 | 0.0 | 1.0 | 0.00 | 0.00 | 0.00 | 90 | 1015.6 |
| 20260507120052 | 40 | 0 | 0.0 | 0.0 | 0.00 | 0.00 | 0.00 | 90 | 1015.8 |
| 20260507114547 | 40 | 0 | 0.0 | 0.0 | 0.00 | 0.00 | 0.00 | 89 | 1015.7 |
| 20260507113052 | 40 | 0 | 0.0 | 0.0 | 0.00 | 0.00 | 0.00 | 89 | 1015.8 |
| 20260507111550 | 40 | 0 | 0.0 | 0.0 | 0.00 | 0.00 | 0.00 | 89 | 1015.9 |
| 20260507110053 | 41 | 0 | 0.0 | 0.0 | 0.00 | 0.00 | 0.00 | 88 | 1015.8 |
| 20260507104547 | 41 | 0 | 0.0 | 0.0 | 0.00 | 0.00 | 0.00 | 88 | 1015.9 |
| 20260507103048 | 41 | 0 | 0.0 | 0.0 | 0.00 | 0.00 | 0.00 | 88 | 1016.0 |
| 20260507101603 | 41 | 0 | 0.0 | 0.0 | 0.00 | 0.00 | 0.00 | 86 | 1016.0 |
| 20260507100051 | 42 | 0 | 0.0 | 0.0 | 0.00 | 0.00 | 0.00 | 86 | 1015.9 |
| 20260507094557 | 42 | 0 | 0.0 | 0.0 | 0.00 | 0.00 | 0.00 | 86 | 1016.0 |
| 20260507093047 | 42 | 0 | 0.0 | 0.0 | 0.00 | 0.00 | 0.00 | 87 | 1016.1 |
| 20260507091603 | 43 | 0 | 0.0 | 0.0 | 0.00 | 0.00 | 0.00 | 87 | 1016.1 |
| 20260507090110 | 43 | 0 | 0.0 | 0.0 | 0.00 | 0.00 | 0.00 | 87 | 1016.1 |
| 20260507084552 | 42 | 0 | 0.0 | 0.0 | 0.00 | 0.00 | 0.00 | 86 | 1016.3 |
| 20260507083059 | 42 | 0 | 0.0 | 0.0 | 0.00 | 0.00 | 0.00 | 86 | 1016.4 |
| 20260507081557 | 41 | 0 | 0.0 | 0.0 | 0.00 | 0.00 | 0.00 | 86 | 1016.5 |
| 20260507080055 | 42 | 0 | 0.0 | 0.0 | 0.00 | 0.00 | 0.00 | 84 | 1016.7 |
| 20260507074552 | 42 | 0 | 0.0 | 0.0 | 0.00 | 0.00 | 0.00 | 84 | 1016.7 |
| 20260507073103 | 43 | 0 | 0.0 | 0.0 | 0.00 | 0.00 | 0.00 | 84 | 1016.8 |
| 20260507071549 | 43 | 0 | 0.0 | 0.0 | 0.00 | 0.00 | 0.00 | 79 | 1017.0 |
| 20260507070134 | 45 | 0 | 0.0 | 0.0 | 0.00 | 0.00 | 0.00 | 79 | 1017.1 |
| 20260507064553 | 45 | 0 | 0.0 | 0.0 | 0.00 | 0.00 | 0.00 | 79 | 1017.2 |
| 20260507063050 | 46 | 0 | 0.0 | 0.0 | 0.00 | 0.00 | 0.00 | 72 | 1017.4 |
| 20260507061549 | 47 | 0 | 0.0 | 0.0 | 0.00 | 0.00 | 0.00 | 72 | 1017.4 |
| 20260507060054 | 50 | 0 | 0.0 | 0.0 | 0.00 | 0.00 | 0.00 | 72 | 1017.5 |
| 20260507054553 | 50 | 0 | 0.0 | 0.0 | 0.00 | 0.00 | 0.00 | 65 | 1017.6 |
| 20260507053053 | 51 | 0 | 0.0 | 2.0 | 0.00 | 0.00 | 0.00 | 65 | 1017.7 |
| 20260507051553 | 52 | 267 | 1.0 | 2.0 | 0.00 | 0.00 | 0.00 | 65 | 1017.7 |
| 20260507050053 | 52 | 0 | 0.0 | 1.0 | 0.00 | 0.00 | 0.00 | 61 | 1017.8 |
| 20260507044551 | 52 | 278 | 2.0 | 2.0 | 0.00 | 0.01 | 0.00 | 61 | 1017.7 |
| 20260507043052 | 53 | 286 | 1.0 | 2.0 | 0.00 | 0.01 | 0.00 | 58 | 1017.7 |
| 20260507041546 | 53 | 259 | 0.0 | 1.0 | 0.00 | 0.01 | 0.00 | 58 | 1017.8 |
| 20260507040050 | 53 | 265 | 2.0 | 3.0 | 0.00 | 0.01 | 0.00 | 58 | 1017.9 |
| 20260507034553 | 53 | 283 | 0.0 | 1.0 | 0.00 | 0.01 | 0.00 | 57 | 1017.8 |
| 20260507033053 | 53 | 261 | 1.0 | 1.0 | 0.00 | 0.01 | 0.00 | 57 | 1017.9 |
| 20260507031554 | 53 | 262 | 0.0 | 1.0 | 0.00 | 0.01 | 0.00 | 57 | 1017.7 |
| 20260507030058 | 54 | 281 | 0.0 | 1.0 | 0.00 | 0.01 | 0.00 | 53 | 1017.8 |
| 20260507024550 | 54 | 0 | 0.0 | 1.0 | 0.00 | 0.01 | 0.00 | 53 | 1017.8 |
| 20260507023048 | 54 | 242 | 0.0 | 1.0 | 0.00 | 0.01 | 0.00 | 53 | 1017.7 |
| 20260507021613 | 54 | 0 | 0.0 | 0.0 | 0.00 | 0.01 | 0.00 | 45 | 1017.4 |
| 20260507014610 | 56 | 263 | 0.0 | 1.0 | 0.00 | 0.01 | 0.00 | 45 | 1017.2 |
| 20260507013054 | 56 | 240 | 1.0 | 1.0 | 0.00 | 0.01 | 0.00 | 38 | 1017.0 |
| 20260507011555 | 57 | 0 | 0.0 | 1.0 | 0.00 | 0.01 | 0.00 | 38 | 1016.9 |
| 20260507004554 | 61 | 0 | 0.0 | 0.0 | 0.00 | 0.01 | 0.00 | 32 | 1016.7 |
| 20260507003050 | 61 | 286 | 0.0 | 1.0 | 0.00 | 0.01 | 0.00 | 32 | 1016.8 |
| 20260507001552 | 60 | 280 | 0.0 | 2.0 | 0.00 | 0.01 | 0.00 | 32 | 1016.9 |
| 20260507000051 | 62 | 281 | 3.0 | 3.0 | 0.00 | 0.01 | 0.00 | 33 | 1016.8 |
| 20260506234548 | 62 | 0 | 1.0 | 1.0 | 0.00 | 0.01 | 0.00 | 33 | 1016.7 |
| 20260506233054 | 62 | 291 | 4.0 | 4.0 | 0.00 | 0.01 | 0.00 | 33 | 1016.8 |
| 20260506231554 | 62 | 303 | 2.0 | 4.0 | 0.00 | 0.01 | 0.00 | 30 | 1016.8 |
| 20260506230053 | 63 | 259 | 4.0 | 4.0 | 0.00 | 0.01 | 0.00 | 30 | 1017.0 |
| 20260506224556 | 63 | 281 | 1.0 | 7.0 | 0.00 | 0.01 | 0.00 | 30 | 1016.8 |
| 20260506223048 | 62 | 294 | 1.0 | 3.0 | 0.00 | 0.01 | 0.00 | 30 | 1016.8 |
| 20260506221553 | 62 | 281 | 1.0 | 3.0 | 0.00 | 0.01 | 0.00 | 30 | 1017.0 |
| 20260506220055 | 62 | 54 | 1.0 | 3.0 | 0.00 | 0.01 | 0.00 | 30 | 1017.1 |
| 20260506214554 | 62 | 287 | 3.0 | 4.0 | 0.00 | 0.01 | 0.00 | 31 | 1017.2 |
| 20260506213044 | 61 | 277 | 2.0 | 7.0 | 0.00 | 0.01 | 0.00 | 31 | 1017.3 |
| 20260506211551 | 60 | 240 | 2.0 | 4.0 | 0.00 | 0.01 | 0.00 | 31 | 1017.6 |
| 20260506210052 | 60 | 60 | 2.0 | 3.0 | 0.00 | 0.01 | 0.00 | 33 | 1017.9 |
| 20260506204553 | 60 | 30 | 2.0 | 7.0 | 0.00 | 0.01 | 0.00 | 33 | 1018.1 |
| 20260506203053 | 59 | 311 | 6.0 | 9.0 | 0.00 | 0.01 | 0.00 | 34 | 1018.3 |
| 20260506201607 | 60 | 287 | 1.0 | 3.0 | 0.00 | 0.01 | 0.00 | 34 | 1018.6 |
| 20260506200048 | 60 | 92 | 3.0 | 4.0 | 0.00 | 0.01 | 0.00 | 34 | 1018.7 |
| 20260506194552 | 59 | 300 | 2.0 | 4.0 | 0.00 | 0.01 | 0.00 | 34 | 1019.0 |
| 20260506193053 | 59 | 250 | 4.0 | 4.0 | 0.00 | 0.01 | 0.00 | 34 | 1018.9 |
| 20260506191549 | 58 | 76 | 2.0 | 2.0 | 0.00 | 0.01 | 0.00 | 34 | 1018.9 |
| 20260506190051 | 58 | 24 | 2.0 | 2.0 | 0.00 | 0.01 | 0.00 | 39 | 1018.9 |
| 20260506184554 | 57 | 91 | 0.0 | 4.0 | 0.00 | 0.01 | 0.00 | 39 | 1018.8 |
| 20260506183048 | 57 | 113 | 1.0 | 1.0 | 0.00 | 0.01 | 0.00 | 39 | 1018.9 |
| 20260506181552 | 57 | 277 | 6.0 | 6.0 | 0.00 | 0.01 | 0.00 | 45 | 1019.2 |
| 20260506180049 | 56 | 79 | 1.0 | 2.0 | 0.00 | 0.01 | 0.00 | 45 | 1019.1 |
| 20260506174546 | 57 | 290 | 2.0 | 6.0 | 0.00 | 0.01 | 0.00 | 45 | 1019.4 |
| 20260506173112 | 56 | 103 | 3.0 | 3.0 | 0.00 | 0.01 | 0.00 | 44 | 1019.5 |
| 20260506171558 | 56 | 62 | 0.0 | 2.0 | 0.00 | 0.01 | 0.00 | 44 | 1019.7 |
| 20260506170054 | 55 | 288 | 0.0 | 3.0 | 0.00 | 0.01 | 0.00 | 44 | 1019.8 |